Location: Peterborough
(44.3091°N, 78.3197°W)
Time: 23:53:15
(UTC-04:00)

Vanguard 2 Rocket - Pass Details

Date: 30 March 2023
Orbit: 554 x 3314 km, 32.9° (Epoch: 02 June)

Event Time Altitude Azimuth Distance (km) Brightness Sun altitude
Rises 19:49:17 0° 235° (SW) 3,104 10.5 -2.9°
Reaches altitude 10° 19:51:33 10° 223° (SW) 2,386 9.6 -3.2°
Maximum altitude 19:56:24 30° 163° (SSE) 1,806 8.2 -4.1°
Drops below altitude 10° 20:03:53 10° 107° (ESE) 3,756 9.4 -5.4°
Enters shadow 20:05:28 - 103° (ESE) 4,278 9.6 -5.7°
Sets 20:08:26 0° 98° (E) 5,256 - -6.2°
